Hourly Data Report for October 12, 2015

All times are specified in Local Standard Time (LST). Add 1 hour to adjust for Daylight Saving Time where and when it is observed.

KAMLOOPS A
BRITISH COLUMBIA

50°42'09.000" N
120°26'55.000" W
345.30 m
1163781
71887
YKA

Download Data

Hourly Data (October 2015)
Hourly Data Report for October 12, 2015
Temp Definition
°C
Dew Point Temp Definition
°C
Rel Hum Definition
%
Wind Dir Definition
10's deg

Wind Spd Definition
km/h
Visibility Definition
km
Stn Press Definition
kPa
Hmdx Definition


Wind Chill Definition


Weather Definition


TIME
00:00 Legend Double Dagger 10.6 2.7 58 10 21 64.4 97.59     LegendNANA
01:00 Legend Double Dagger 10.4 2.5 58 10 22 64.4 97.56     Cloudy
02:00 Legend Double Dagger 10.7 2.3 56 7 22 64.4 97.44     LegendNANA
03:00 Legend Double Dagger 10.9 2.0 54 7 25 64.4 97.41     LegendNANA
04:00 Legend Double Dagger 10.9 1.7 53 5 26 64.4 97.34     Cloudy
05:00 Legend Double Dagger 10.7 2.1 55 9 13 64.4 97.34     LegendNANA
06:00 Legend Double Dagger 10.9 2.5 56 10 21 64.4 97.33     LegendNANA
07:00 Legend Double Dagger 10.7 2.8 58 10 25 64.4 97.37     Mostly Cloudy
08:00 Legend Double Dagger 11.1 3.0 57 10 26 64.4 97.41     LegendNANA
09:00 Legend Double Dagger 11.7 3.5 57 10 23 64.4 97.44     LegendNANA
10:00 Legend Double Dagger 12.3 3.8 56 10 17 64.4 97.45     Cloudy
11:00 Legend Double Dagger 13.2 3.4 51 9 17 64.4 97.45     LegendNANA
12:00 Legend Double Dagger 13.7 3.5 50 12 18 64.4 97.48     LegendNANA
13:00 Legend Double Dagger 15.8 4.6 47 11 23 64.4 97.50     Mostly Cloudy
14:00 Legend Double Dagger 15.3 5.3 51 10 26 64.4 97.49     LegendNANA
15:00 Legend Double Dagger 15.7 5.4 50 11 25 64.4 97.46     LegendNANA
16:00 Legend Double Dagger 15.9 5.3 49 11 24 64.4 97.48     Mainly Clear
17:00 Legend Double Dagger 14.5 5.4 54 11 23 64.4 97.53     LegendNANA
18:00 Legend Double Dagger 13.2 4.7 56 11 25 64.4 97.57     LegendNANA
19:00 Legend Double Dagger 12.3 5.3 62 11 21 64.4 97.67     Mainly Clear
20:00 Legend Double Dagger 11.9 5.8 66 12 16 64.4 97.72     LegendNANA
21:00 Legend Double Dagger 9.6 5.0 73 9 11 64.4 97.77     LegendNANA
22:00 Legend Double Dagger 9.4 5.4 76 8 17 64.4 97.84     Clear
23:00 Legend Double Dagger 7.5 4.6 82 8 12 64.4 97.88     LegendNANA

Notes on Data Quality.

Legend

  • E = Estimated
  • M = Missing
  • NA = Not Available
  • ‡ = Partner data that is not subject to review by the National Climate Archives
Date modified: